Theta_e
312 312 312 312 312 312 312 312 312 311 311 312 312 312 312 312 312 313 313 313 313 313 313 313 313 313 313 313 313 313 313 310 306 304 303 308 312 316 321 320 321 321 322 313 311 311 307 308 307 307 307 306 304 303 305 306 302 303 298 296 293 294 292 296 295 296 296 297 299 299 299 299 298 302 304 324 330 329 330 329 332 335 335 337 337 338 339 339
311 312 312 312 312 312 312 312 312 312 311 312 311 311 312 312 312 312 313 313 313 313 313 313 313 313 313 312 313 313 311 307 305 303 303 313 317 320 322 324 322 323 320 311 310 308 306 304 305 306 304 302 305 302 305 303 305 300 296 295 293 295 296 298 297 298 297 298 299 299 300 298 300 299 302 307 321 326 325 328 330 328 332 336 337 337 337 337
311 311 311 311 311 312 312 312 312 312 311 311 311 311 312 312 312 312 312 312 313 313 313 313 313 313 313 313 313 313 309 306 303 301 312 323 323 321 323 324 325 323 313 310 309 309 307 306 306 304 303 301 304 301 304 302 304 301 298 294 295 296 296 296 298 298 298 299 299 300 301 298 301 299 305 311 312 324 323 325 325 327 328 331 333 335 335 335
311 311 311 311 311 311 311 312 312 311 311 311 311 311 312 312 312 312 312 313 313 312 313 313 313 313 313 313 314 311 307 302 301 308 312 322 330 325 322 323 326 324 308 308 306 306 306 307 305 305 302 301 301 302 300 303 301 300 298 296 296 296 297 299 298 299 300 299 299 299 300 300 302 300 308 316 309 319 323 328 328 328 329 330 332 333 334 333
310 310 311 311 311 311 311 311 312 311 312 312 311 311 312 312 312 312 312 312 312 312 312 313 313 313 313 314 312 311 305 295 303 308 311 330 331 324 323 326 328 318 309 304 306 306 307 306 304 302 301 299 301 301 301 302 303 300 298 299 297 299 299 302 302 302 300 299 299 300 299 301 302 301 306 309 301 302 313 328 331 332 332 331 331 332 333 332
310 310 310 311 311 311 311 311 311 311 311 312 312 312 312 312 312 312 312 312 312 312 312 312 313 312 313 313 311 307 295 288 299 302 325 332 326 325 328 328 327 308 306 306 304 305 305 303 303 298 298 300 299 297 300 302 302 296 300 300 301 302 299 301 302 303 300 301 300 299 301 300 300 299 301 301 303 310 325 329 332 334 334 334 334 334 332 332
310 310 310 310 311 310 311 311 311 311 311 311 312 312 312 312 311 312 312 311 312 312 312 312 312 312 312 310 308 300 295 296 302 307 335 331 327 329 327 324 317 307 306 303 304 303 303 302 301 298 298 298 298 299 301 302 302 299 297 299 301 300 300 303 303 303 302 299 300 301 300 298 299 297 303 306 312 320 329 333 333 336 335 335 332 333 332 332
310 310 310 310 310 310 310 311 311 311 311 311 311 311 311 311 311 311 311 311 311 311 311 311 312 312 311 307 302 297 293 295 302 302 332 330 327 327 319 310 307 305 304 304 303 301 303 300 298 299 297 295 297 300 301 300 300 299 298 299 301 301 302 303 302 300 300 299 300 298 297 299 298 299 300 300 306 322 333 335 336 335 334 333 333 333 333 332
310 310 310 310 310 310 310 310 311 311 311 311 311 311 311 311 311 311 311 311 311 310 311 311 312 311 311 304 295 292 294 299 300 313 327 324 324 321 317 311 307 305 302 302 303 303 302 299 299 300 294 295 299 299 299 299 297 300 300 301 302 302 303 302 301 301 300 299 298 297 298 298 299 299 300 302 322 331 335 334 334 333 332 331 332 333 333 332
309 310 310 310 310 310 310 310 310 311 311 311 311 311 310 310 310 310 311 311 311 310 310 311 312 310 307 304 295 290 297 299 318 324 323 321 318 315 312 313 307 304 303 300 301 302 301 300 301 301 301 299 300 299 300 299 297 300 301 301 301 301 299 300 298 299 298 296 297 297 299 298 299 300 298 317 328 333 333 332 333 332 330 331 332 333 333 332
309 309 310 309 309 310 310 310 310 310 311 311 311 310 310 310 310 310 310 310 310 310 310 310 311 309 304 302 294 289 300 314 318 322 319 317 313 311 311 310 308 307 305 299 301 303 302 302 301 302 301 298 300 298 299 300 300 299 299 297 297 296 296 297 296 296 297 299 298 298 297 297 298 298 299 306 330 333 330 330 330 330 331 331 332 333 334 333
309 309 309 309 309 309 310 310 310 310 310 310 310 310 310 310 310 310 310 310 310 310 309 310 310 307 306 299 295 294 300 316 318 320 317 314 311 311 310 312 309 308 306 302 301 301 302 303 302 301 295 301 296 298 298 301 298 299 297 295 296 296 297 297 296 298 296 298 298 299 297 296 296 297 300 310 330 331 330 329 329 330 331 332 333 333 334 333
309 309 309 309 309 309 309 310 310 310 310 310 310 310 310 310 309 309 309 310 310 310 309 310 309 307 302 293 296 302 305 314 312 310 314 307 306 308 312 311 310 309 309 306 303 303 301 302 303 301 302 301 299 296 298 300 298 297 297 295 294 295 295 296 296 295 294 297 296 299 291 295 297 299 300 305 329 329 328 327 328 329 330 332 333 333 334 335
309 309 309 309 309 309 309 309 310 310 310 310 310 309 309 309 309 309 310 309 310 310 310 311 308 303 299 291 297 300 303 305 306 305 306 308 305 305 309 308 309 308 307 305 304 304 302 302 303 302 303 301 299 303 299 297 296 296 295 295 292 292 292 296 295 296 295 296 295 299 292 295 298 300 299 311 329 327 325 326 327 329 330 332 332 333 333 335
308 308 308 309 309 309 309 309 310 310 310 310 309 309 309 308 309 310 311 310 308 308 310 311 308 304 297 297 304 307 314 309 304 304 307 304 304 304 307 307 307 307 305 305 303 302 302 303 302 300 299 301 300 299 295 295 294 294 292 291 291 291 293 296 297 296 295 297 298 297 293 294 297 299 298 319 327 327 325 325 326 328 329 330 332 332 333 327
308 308 308 308 308 309 309 309 309 309 309 309 309 308 308 309 310 311 309 309 310 311 309 303 303 301 295 293 303 318 312 305 306 311 309 307 305 302 307 306 305 304 305 304 304 303 302 303 299 299 299 299 298 295 294 294 293 292 292 291 290 290 291 292 295 294 295 295 298 296 292 295 297 297 300 318 326 326 324 324 326 326 327 329 330 331 329 321
308 308 308 308 308 308 308 309 309 309 309 309 308 308 308 309 310 310 309 310 310 310 307 302 304 305 292 299 306 301 302 307 308 313 308 309 307 305 304 303 302 302 303 302 302 302 301 299 299 298 299 297 295 295 292 290 290 291 291 291 291 290 291 290 296 296 296 297 295 297 294 295 298 299 299 314 325 325 323 324 325 326 327 328 329 330 328 321
308 308 308 308 308 308 308 308 308 309 309 308 307 307 306 308 311 310 309 309 308 308 306 308 303 295 292 300 295 299 305 306 307 311 310 310 309 305 305 301 299 301 301 299 300 298 299 297 298 294 296 295 295 294 290 287 290 290 291 290 290 290 290 290 290 294 296 296 295 295 295 295 298 299 297 301 322 324 323 324 325 325 326 327 328 329 328 321
308 308 307 307 307 308 308 308 308 308 308 307 307 306 309 309 307 308 305 305 300 295 291 294 293 288 289 296 299 302 303 306 307 306 305 308 308 307 305 303 302 300 297 298 297 297 297 297 298 294 291 292 293 293 292 291 292 291 291 290 290 290 291 290 293 296 295 295 294 295 293 295 297 299 299 300 307 321 322 325 324 325 326 326 326 327 328 322
307 307 307 307 307 308 307 307 308 308 307 305 304 303 304 299 296 294 302 302 299 297 295 297 298 297 297 299 300 305 307 306 303 303 308 309 308 305 304 304 300 301 299 297 296 297 298 293 291 291 294 294 295 295 296 294 292 291 291 291 290 290 291 291 292 296 297 294 294 295 296 295 297 299 301 300 301 316 321 322 322 323 324 325 326 326 328 324
307 307 307 307 307 308 307 307 307 307 307 305 301 297 296 296 293 293 295 297 303 302 300 300 301 299 298 301 302 303 299 300 303 304 307 313 307 305 301 302 300 298 297 296 296 300 297 292 293 295 295 296 297 297 296 292 293 292 292 291 291 291 290 292 293 296 295 294 293 295 294 296 298 300 301 301 300 303 315 320 322 323 324 325 326 327 328 326
307 307 307 307 307 307 307 307 307 306 305 303 299 296 297 297 300 300 298 293 298 298 299 300 301 299 304 303 304 304 302 297 299 301 303 308 304 300 298 299 297 295 296 295 296 295 293 291 295 295 297 297 296 294 295 295 293 292 292 292 290 291 291 293 292 294 294 294 293 294 293 295 298 299 301 300 300 304 311 319 322 324 324 324 325 327 328 323
306 306 307 307 307 307 307 307 306 303 302 300 297 296 298 303 304 305 303 296 294 299 296 296 296 297 299 302 304 306 297 295 293 298 300 306 300 300 299 297 297 296 294 296 294 292 290 292 296 296 296 297 293 294 294 294 294 292 291 290 289 291 289 289 294 293 296 294 293 294 293 295 298 300 300 302 301 302 306 314 321 326 325 325 325 326 326 322
306 306 307 307 307 307 307 306 304 302 300 298 297 298 303 304 305 305 300 293 292 297 297 298 299 298 298 297 303 302 297 296 296 296 305 304 301 301 300 298 295 295 295 295 296 294 292 293 295 294 295 296 295 293 294 293 291 293 292 291 290 289 291 291 292 294 295 296 295 293 293 294 297 297 299 300 299 298 299 300 301 311 323 327 328 329 328 325
306 306 306 307 306 307 306 305 300 299 300 298 297 302 304 306 305 304 299 295 293 293 300 299 300 300 302 307 305 299 299 298 298 300 304 305 298 299 298 298 298 294 296 294 294 294 294 296 295 294 293 293 294 291 292 293 291 292 294 292 292 293 292 292 292 291 291 291 296 293 289 290 295 294 297 300 300 303 303 299 300 303 316 323 325 326 328 327
306 306 306 306 306 305 306 300 297 299 298 298 301 303 305 304 305 306 299 290 287 293 297 293 302 297 307 299 302 300 299 294 300 301 304 306 307 302 297 297 298 293 293 293 294 296 295 296 295 293 293 292 292 293 293 294 291 289 291 294 294 293 293 291 290 291 287 287 293 295 288 286 296 295 298 299 299 302 306 304 302 308 314 320 323 325 326 326
306 306 306 306 305 305 299 292 301 301 296 297 303 304 304 304 306 303 294 286 283 294 294 296 297 297 303 300 301 298 286 290 301 302 303 307 302 304 298 295 295 295 295 297 293 291 294 293 294 294 294 292 291 291 293 293 292 289 295 292 293 292 290 291 291 291 290 294 296 292 293 288 289 295 298 298 300 303 305 307 310 314 317 320 323 325 325 326
305 305 305 305 305 305 300 301 299 296 296 302 304 304 304 305 304 303 291 276 278 294 291 295 297 304 301 300 302 295 293 296 293 298 303 304 304 300 300 295 295 295 294 295 287 296 296 293 294 292 293 291 292 295 294 294 292 292 293 293 293 293 293 291 291 291 291 290 289 292 292 288 289 294 297 300 300 302 303 306 309 313 317 319 322 323 325 326
305 305 305 305 305 305 304 301 299 297 301 303 304 304 304 305 303 295 285 276 289 292 303 292 304 297 298 301 298 298 297 298 294 297 302 304 304 302 297 297 297 296 295 297 292 294 293 296 295 296 293 292 294 293 294 294 292 295 293 293 293 292 291 292 291 290 291 288 285 291 292 287 288 295 297 302 300 301 303 306 308 312 316 318 319 322 325 325
305 305 305 305 304 302 301 303 299 303 304 304 304 304 303 301 295 286 280 275 292 286 293 294 294 290 294 294 294 297 294 296 296 299 300 298 301 301 297 300 297 295 294 295 294 295 294 300 297 295 294 297 296 294 294 295 296 294 294 293 292 292 292 292 292 292 290 283 288 292 292 290 285 292 295 296 301 303 305 308 309 312 316 318 320 321 323 323
305 305 305 305 300 301 300 295 299 302 303 304 304 300 299 295 288 279 273 285 290 291 293 290 289 293 290 288 288 290 294 295 295 298 295 299 297 299 298 296 298 295 293 294 293 294 294 294 293 295 299 294 296 293 292 295 294 294 293 292 291 290 291 291 290 291 284 283 290 290 291 291 284 290 296 300 302 306 306 306 308 309 313 317 319 320 322 323
304 305 305 303 303 304 297 297 297 304 304 304 303 299 294 283 286 278 279 292 282 288 286 287 290 290 290 288 286 289 292 293 295 295 294 295 294 294 295 293 294 287 287 289 289 293 292 293 294 295 302 296 292 293 292 292 293 293 292 291 286 285 285 282 286 281 283 283 289 288 289 288 288 293 299 299 305 308 310 310 310 311 312 318 319 320 321 322
305 304 306 304 305 302 302 305 305 305 305 303 297 293 288 279 274 282 282 287 283 289 287 291 289 290 289 287 289 290 293 291 295 294 296 294 294 295 294 295 295 294 286 291 289 289 292 293 291 294 295 298 296 291 290 289 291 291 289 289 285 282 280 276 282 283 285 288 288 288 291 287 293 295 301 304 309 311 312 313 313 313 313 317 320 321 321 322
304 304 302 303 303 303 305 307 305 305 302 301 299 290 282 275 277 292 285 286 286 291 289 288 290 289 287 288 289 291 291 295 294 294 295 293 294 292 294 293 293 293 295 288 288 289 284 286 291 292 291 297 295 295 295 294 290 291 293 291 289 288 284 277 282 279 282 286 288 290 287 286 288 293 305 308 311 313 314 314 314 314 317 320 321 322 321 321
304 304 303 302 302 304 305 306 305 306 301 298 289 285 277 276 281 282 284 286 287 289 289 291 287 286 287 287 289 290 293 294 297 293 293 292 291 292 292 293 293 295 292 288 289 287 287 288 293 295 293 294 294 296 296 292 291 291 292 293 289 287 293 286 286 287 286 286 285 287 287 293 294 303 305 309 313 313 313 314 316 316 317 317 316 316 317 316
302 301 301 301 301 304 305 305 306 304 299 294 287 279 277 284 281 284 287 289 288 288 288 289 286 286 285 287 288 288 294 294 296 295 293 293 293 292 293 294 294 295 293 289 291 287 286 287 293 294 292 294 296 296 295 296 287 291 290 288 291 296 294 285 284 285 283 284 283 288 292 296 301 302 305 309 310 310 313 313 314 312 312 313 312 313 314 315
298 301 302 302 303 306 305 305 305 300 295 289 284 277 285 284 286 287 293 290 290 290 286 284 286 284 284 285 287 288 290 295 295 294 290 294 292 293 292 294 295 294 296 296 289 292 287 288 293 291 293 295 294 295 296 295 296 291 288 292 294 295 297 291 284 283 284 281 282 289 289 292 292 288 303 307 307 308 308 310 311 311 310 309 311 312 313 314
298 298 303 306 306 305 306 306 303 296 292 290 281 289 286 286 288 290 290 291 292 290 287 284 287 287 285 285 287 287 290 290 291 294 292 294 290 298 295 294 297 296 296 297 294 294 291 286 292 291 291 294 295 295 293 294 295 294 293 297 292 287 286 289 287 279 279 278 282 288 288 290 293 294 300 302 303 305 307 308 308 308 309 309 310 312 314 315
298 300 302 305 306 306 305 306 302 298 293 285 281 282 284 286 290 290 293 293 292 289 287 286 285 288 287 286 287 287 289 287 289 293 290 293 290 298 297 297 296 297 296 295 294 294 292 287 290 292 291 293 294 295 288 291 294 294 295 294 295 294 293 287 287 289 287 281 280 283 288 286 296 298 298 301 304 306 307 307 307 308 309 310 311 312 313 314
298 300 298 306 306 307 306 305 301 295 291 284 283 285 287 290 293 294 293 294 291 290 289 288 286 287 289 288 287 287 289 288 291 290 291 293 292 298 297 301 297 298 294 295 295 295 289 292 284 293 293 293 290 295 293 292 290 291 292 291 292 295 293 294 292 289 287 284 283 283 282 290 295 296 298 301 305 308 308 306 307 309 309 310 311 312 312 313
296 299 298 306 306 307 306 302 297 292 290 289 289 289 291 291 295 295 296 295 295 295 292 289 290 288 288 288 288 288 288 289 290 291 291 294 293 291 299 298 299 299 299 294 295 297 290 289 286 292 292 292 292 295 296 294 294 293 293 291 293 291 289 285 284 290 289 288 282 282 282 293 294 302 302 303 306 308 308 307 307 309 309 310 311 311 312 312
298 295 297 306 307 307 302 295 291 291 292 290 291 292 291 298 293 293 294 293 293 293 293 292 290 290 288 288 289 288 290 290 290 291 292 291 295 294 298 298 297 299 298 294 295 298 298 293 292 287 291 292 295 296 296 296 297 295 294 292 293 294 294 289 282 286 289 288 289 290 285 288 298 303 304 305 307 308 309 308 307 308 309 310 311 311 312 312
298 296 304 306 308 304 299 290 291 290 292 293 294 293 293 293 292 293 292 293 292 292 292 291 291 289 290 289 289 289 291 290 290 292 292 293 295 296 297 298 298 296 299 296 296 300 307 292 290 289 292 293 295 295 294 296 296 295 296 296 295 293 293 293 291 293 290 288 287 287 284 289 300 305 305 305 306 307 307 308 307 306 306 306 306 306 308 309
297 300 302 306 305 304 298 287 287 286 291 293 292 292 293 293 292 292 291 292 291 292 290 290 291 291 291 291 291 290 294 286 292 293 292 293 294 297 300 299 300 299 297 298 296 303 291 292 290 286 286 289 292 295 294 295 297 294 294 295 293 294 292 292 293 292 289 290 290 288 282 289 298 304 304 305 304 303 303 304 305 304 305 305 305 305 306 307
297 299 300 302 303 305 295 293 292 284 290 289 289 290 291 291 293 293 292 292 292 292 291 291 291 292 292 292 291 291 293 291 290 293 292 293 294 297 299 299 300 300 305 306 303 301 294 290 289 284 281 279 279 281 284 288 292 292 293 294 294 293 292 293 288 290 286 288 288 288 287 291 299 302 302 302 302 301 301 301 302 302 301 300 301 302 302 304
296 290 294 299 297 297 295 294 294 293 289 289 286 288 289 289 292 291 292 293 292 292 292 292 291 292 290 290 291 290 290 292 290 291 290 291 293 295 296 300 299 297 301 306 303 301 291 291 291 290 288 287 288 287 288 288 292 292 291 292 292 292 292 290 292 289 287 288 288 291 292 294 295 298 299 300 301 301 299 299 298 298 298 299 300 300 300 300
295 292 287 290 295 294 292 292 292 292 290 291 286 288 287 288 289 290 292 291 293 291 292 290 289 290 288 289 288 288 287 289 290 291 288 289 291 293 294 298 299 299 301 303 303 295 294 290 290 290 289 290 290 290 291 291 290 288 289 290 292 292 292 292 289 288 293 290 286 291 294 295 295 298 299 298 300 299 298 297 297 297 297 298 299 299 298 299
292 290 293 296 291 288 288 288 291 291 290 291 288 289 287 287 288 286 291 292 292 293 290 290 289 289 288 287 288 286 287 287 288 286 289 288 290 293 294 295 296 298 298 298 302 300 295 288 290 290 288 290 291 290 292 290 289 288 289 290 290 292 293 291 287 289 292 289 288 292 294 295 297 299 300 300 300 297 296 296 296 297 297 297 297 296 296 296
293 292 294 293 290 288 289 290 291 292 290 290 289 288 288 287 286 288 288 291 291 291 290 285 287 287 288 288 289 286 286 285 284 288 288 287 288 288 292 295 295 295 295 296 300 298 297 290 293 292 289 290 290 290 291 290 288 288 288 289 290 292 292 292 292 293 294 291 293 294 295 295 297 299 297 297 298 297 296 296 296 295 294 295 296 295 295 295
293 293 292 292 292 291 291 290 288 290 288 288 286 287 287 287 287 288 289 289 286 288 290 288 287 288 289 288 289 286 286 287 286 283 289 288 289 288 287 287 288 293 292 291 296 298 295 289 293 291 289 289 289 290 290 289 288 287 288 289 289 291 292 292 292 291 294 295 296 296 295 292 295 297 295 296 296 296 295 293 293 293 294 294 294 294 294 294
296 297 297 294 290 290 291 287 289 289 286 287 287 287 288 287 287 287 288 290 290 288 289 287 288 289 289 288 289 288 289 289 289 289 291 289 286 292 290 291 292 287 288 289 290 295 297 290 293 292 287 286 290 289 287 286 287 287 286 286 287 288 287 289 288 291 290 291 295 294 292 289 293 295 293 293 293 292 291 291 291 292 293 294 293 293 293 294
297 296 294 293 288 287 287 285 285 286 284 286 287 287 287 288 287 287 286 287 289 291 291 290 289 289 288 289 288 289 290 291 291 292 291 291 292 292 293 293 294 291 291 291 289 291 293 292 288 289 287 285 289 289 289 289 288 286 283 284 286 288 289 290 291 292 291 290 292 290 292 295 294 294 292 291 291 290 290 290 291 291 292 292 292 293 293 294
Wind_Speed
11 11 10 11 11 11 11 10 10 10 9 9 9 9 9 9 9 9 10 10 10 11 11 11 12 12 11 12 13 14 13 10 11 5 4 10 5 6 8 4 13 13 4 10 10 12 7 7 7 1 4 2 2 4 1 1 1 2 4 1 5 3 4 4 6 6 3 4 7 11 7 9 12 11 5 3 4 3 4 2 1 4 3 2 9 15 17 17
12 11 11 11 11 11 11 10 10 10 9 9 10 9 9 9 9 9 10 10 10 11 11 12 12 12 13 12 12 13 11 7 10 8 15 7 5 8 8 4 9 11 8 10 13 8 13 6 5 6 6 3 2 2 1 3 1 3 2 3 9 3 0 3 0 2 4 8 9 7 4 3 8 5 3 5 2 2 5 1 1 3 6 9 12 16 17 18
12 12 12 12 11 11 12 12 11 10 10 10 9 10 9 9 10 10 10 10 10 10 11 12 12 13 13 12 13 7 8 5 5 2 1 8 13 9 9 7 8 12 6 8 5 10 11 13 9 8 2 4 1 4 1 3 3 1 3 7 4 1 1 3 4 4 4 6 8 10 9 4 9 2 2 4 5 3 8 5 3 6 6 10 13 16 16 17
12 12 12 12 12 12 12 12 12 11 11 10 10 10 10 10 10 10 10 10 11 11 12 12 13 13 13 13 12 8 3 4 1 1 2 5 7 10 10 11 11 11 4 5 4 5 5 9 7 4 3 3 2 0 6 3 4 3 4 5 2 2 2 2 4 6 7 3 6 7 8 11 2 3 3 2 5 6 7 7 6 9 12 13 15 16 15 16
12 12 12 12 12 12 12 12 12 11 12 12 11 11 10 10 10 11 11 11 11 11 12 12 13 13 14 14 11 2 3 1 3 2 3 8 3 11 12 12 13 10 2 8 9 7 10 10 7 3 2 4 2 4 3 2 2 3 5 5 6 2 4 3 7 7 5 1 3 6 9 10 7 3 3 4 6 6 3 6 9 6 12 16 18 17 15 17
12 13 13 13 12 12 12 12 12 12 12 12 12 11 11 11 11 11 11 11 11 11 12 12 13 13 14 13 4 1 2 2 1 3 8 2 9 10 10 13 16 9 7 6 5 9 11 4 8 6 4 3 7 7 3 3 3 7 4 3 4 5 6 2 5 5 1 5 6 8 4 7 6 10 6 7 9 3 1 1 9 10 14 15 16 17 17 18
13 13 13 13 13 13 13 13 13 13 13 13 12 11 11 11 10 10 10 10 10 11 11 12 12 13 14 8 1 1 3 7 3 1 7 8 11 12 13 15 15 8 7 9 9 8 5 8 4 5 5 3 1 2 5 5 3 7 4 2 2 3 5 6 10 7 7 2 7 3 5 7 7 11 2 5 6 3 3 5 9 11 13 15 17 18 19 20
13 13 13 13 13 13 13 13 13 13 14 13 13 12 12 11 11 10 10 10 10 10 10 11 11 11 11 4 1 2 1 5 6 1 6 11 12 13 12 8 9 6 7 10 10 7 9 11 10 4 3 6 4 7 5 4 5 10 7 1 5 2 4 5 6 6 7 7 7 5 5 7 3 7 5 10 3 3 4 7 10 13 14 15 16 17 17 17
13 13 13 13 13 13 13 13 13 14 14 14 14 13 13 12 11 11 10 10 9 9 9 10 10 10 3 1 3 5 3 5 2 4 3 9 8 9 8 8 3 7 4 3 1 10 10 5 4 6 4 6 4 10 3 7 7 6 7 5 7 8 6 4 8 9 9 4 3 4 8 4 7 4 7 10 2 3 7 9 11 13 14 15 16 17 17 18
13 13 13 14 14 13 13 14 13 14 14 14 14 14 13 13 12 11 11 10 9 9 9 9 8 9 3 1 1 3 3 1 1 3 7 9 9 7 5 6 7 8 7 3 4 7 5 5 6 6 4 4 7 5 4 6 1 3 2 5 6 6 4 4 6 6 1 4 4 7 10 3 2 2 5 5 3 8 8 9 10 13 14 15 15 15 15 16
13 13 13 13 14 14 14 14 14 14 14 14 14 14 14 13 13 13 11 11 9 9 8 7 7 6 1 1 0 4 1 2 1 4 8 9 10 7 6 7 6 6 6 3 5 4 2 6 3 3 1 2 7 2 5 4 2 2 2 3 5 4 4 6 6 10 4 6 6 8 5 1 2 0 7 3 5 8 10 10 10 11 13 14 16 15 14 14
13 13 13 14 14 14 14 14 14 15 14 14 15 15 15 15 15 14 13 12 10 8 6 5 4 1 1 1 4 7 0 2 4 4 7 8 7 4 5 7 8 8 8 6 5 3 3 3 6 4 1 4 6 3 4 2 2 2 1 6 3 3 4 1 5 2 2 7 6 4 5 5 2 7 0 3 4 7 9 11 12 12 13 14 15 15 14 14
13 13 14 14 14 14 14 15 14 14 15 14 15 15 16 17 17 16 15 12 9 6 3 1 2 0 1 3 7 4 1 4 5 3 5 1 1 1 4 6 8 5 5 5 4 5 5 4 2 5 2 3 4 1 3 1 1 3 2 1 4 3 5 1 3 2 3 4 4 4 8 2 4 9 5 3 6 8 8 10 11 11 11 12 14 14 15 12
14 14 14 14 14 15 15 15 15 15 15 15 16 16 17 18 18 17 14 12 8 6 6 5 2 2 1 5 5 2 4 1 2 3 6 2 1 2 2 2 1 2 1 3 2 1 5 2 2 1 1 2 2 1 1 1 2 3 1 1 1 3 2 1 3 2 4 1 1 5 7 6 4 5 3 1 7 10 9 9 11 11 12 13 14 13 12 11
14 14 14 14 15 15 15 15 14 15 15 16 17 17 18 20 17 15 11 8 5 5 6 6 2 2 1 7 5 7 6 3 3 10 6 8 7 1 4 4 4 3 1 2 2 1 2 5 2 3 3 1 1 2 1 1 3 2 2 3 1 3 0 9 4 1 5 3 5 6 4 6 6 5 5 2 7 8 7 8 10 11 12 13 13 13 10 9
15 15 15 15 15 15 15 15 15 15 16 18 18 19 19 16 14 7 2 3 4 8 6 4 1 1 1 6 3 7 6 3 4 7 6 9 9 6 4 7 6 4 4 1 1 2 2 5 4 3 1 2 1 1 2 1 1 2 3 3 2 1 1 5 3 0 1 2 4 3 3 4 2 2 4 4 7 8 8 9 11 12 14 13 13 11 8 12
15 15 15 15 15 16 16 16 15 16 16 17 20 17 14 12 4 5 7 7 4 4 2 2 3 2 2 1 1 2 3 4 0 2 3 6 7 8 12 8 5 5 2 3 3 2 2 5 1 2 3 1 1 3 2 4 4 2 1 3 0 5 1 2 3 2 6 5 3 6 4 6 10 6 3 4 7 8 9 10 12 12 12 14 12 10 10 11
15 15 16 16 15 16 16 16 16 16 17 18 18 14 8 8 5 7 7 4 2 2 1 1 2 2 6 2 4 2 1 2 2 2 3 2 6 8 6 4 5 7 5 4 2 4 1 3 1 4 2 2 3 4 7 6 4 4 4 4 4 2 3 3 2 1 8 1 6 1 5 9 10 7 3 4 6 9 11 11 11 12 13 13 13 11 9 11
15 15 16 16 16 16 16 16 16 16 16 17 14 8 5 2 2 1 5 2 2 1 1 2 3 4 2 1 2 3 2 3 1 2 3 8 3 2 5 5 11 11 5 3 2 2 2 2 1 3 7 6 6 7 5 2 3 2 3 1 2 5 2 2 2 7 3 9 10 9 7 8 10 10 2 4 7 10 12 11 9 12 12 12 11 10 9 10
16 15 16 16 16 16 16 16 16 17 18 11 7 3 1 1 1 2 2 1 5 6 2 3 6 3 7 5 5 5 3 2 2 2 4 3 10 6 4 4 3 2 5 5 4 2 2 5 7 9 6 4 5 7 8 4 3 4 2 2 5 5 4 1 4 7 4 6 8 10 6 5 9 11 7 4 2 8 11 12 12 12 13 12 11 10 11 10
16 16 16 16 17 17 17 16 15 17 16 5 2 1 2 1 2 3 3 8 6 6 9 7 12 11 5 5 3 6 5 3 2 1 4 5 6 13 4 4 3 4 1 2 4 2 3 6 7 3 7 9 9 6 5 5 0 4 4 4 8 4 5 3 6 4 1 4 5 1 3 8 10 10 9 2 4 10 13 14 14 14 14 12 12 12 14 11
16 15 16 16 17 17 17 16 16 16 5 2 2 2 2 1 2 2 1 6 2 9 9 12 4 11 3 4 2 0 2 4 7 6 2 6 7 8 3 5 4 7 2 4 4 4 5 7 5 6 4 5 5 5 5 6 4 2 4 3 6 6 1 6 5 5 1 4 8 1 5 8 12 12 11 5 10 10 12 14 15 15 14 12 13 14 13 11
15 16 16 17 17 17 17 17 14 5 1 2 2 2 2 2 3 3 0 4 8 3 5 3 5 10 9 4 7 8 7 9 8 3 7 7 5 4 9 7 7 4 3 5 7 4 5 7 7 5 6 6 4 4 6 4 2 3 3 4 9 2 4 3 4 2 4 3 6 7 10 10 11 10 11 10 10 12 10 6 10 7 9 14 16 17 16 16
15 15 16 16 17 17 17 17 4 1 2 3 3 5 2 3 3 3 3 4 6 5 5 5 7 3 5 3 5 12 11 5 6 8 5 10 8 5 7 10 7 6 8 9 9 8 5 3 2 7 7 9 6 4 6 4 5 2 5 6 7 2 5 7 4 3 4 6 4 7 6 8 6 7 4 2 2 8 9 7 8 8 8 10 12 13 15 16
15 15 16 16 16 18 19 12 2 2 5 4 4 5 5 4 3 1 3 3 2 5 1 1 2 5 5 2 4 10 3 2 10 2 6 12 7 7 5 3 4 7 7 5 4 4 6 4 5 8 4 4 5 4 6 5 5 2 6 9 10 10 11 9 2 4 4 3 2 2 3 4 1 3 6 3 3 5 4 5 8 10 11 12 16 18 17 15
15 15 15 15 16 18 18 1 2 5 6 3 1 1 4 5 3 2 1 3 4 2 2 1 3 2 4 3 4 3 3 5 3 6 6 5 7 6 4 5 3 10 7 8 5 2 4 5 9 7 7 6 7 6 3 7 4 2 4 10 14 12 7 2 4 2 4 3 3 1 4 3 1 6 4 4 7 7 2 3 6 8 11 14 14 16 18 17
15 15 15 14 14 16 6 0 2 7 3 1 2 4 4 5 3 2 2 2 1 2 2 1 3 1 2 3 7 3 4 1 2 2 7 3 9 1 9 6 2 4 4 3 2 6 4 4 5 4 6 6 4 6 5 10 5 4 2 5 4 5 7 8 8 8 4 3 4 3 5 6 8 2 3 4 7 7 2 3 2 5 9 12 12 14 17 17
15 15 14 14 12 9 4 7 8 3 5 3 2 5 5 4 2 1 1 1 0 1 2 1 1 2 1 1 4 5 2 3 1 1 3 1 1 1 3 9 11 9 5 5 9 1 6 6 7 7 6 5 7 9 6 10 6 2 3 5 5 7 6 6 6 5 1 2 5 2 3 3 5 2 2 2 7 5 3 5 4 4 7 10 11 13 15 17
16 15 14 13 13 12 6 5 2 7 3 2 5 5 5 1 2 1 1 1 1 2 3 3 1 0 2 2 4 6 4 2 3 2 1 1 3 2 7 7 3 6 3 9 8 3 2 6 9 9 8 7 7 4 11 12 8 4 6 4 4 4 3 5 4 4 2 2 5 3 4 5 8 3 4 2 3 5 4 7 7 5 6 8 10 12 13 14
16 15 14 14 11 4 1 3 9 6 3 6 6 6 2 2 1 1 1 3 4 1 2 2 2 4 2 2 4 3 6 2 0 3 3 4 5 3 5 2 6 6 5 2 3 1 2 3 2 4 8 9 7 3 8 14 7 5 7 4 3 3 2 2 1 2 3 2 8 2 6 5 6 3 3 5 1 2 7 6 6 6 6 8 9 11 10 12
17 16 14 12 5 2 2 4 7 6 4 4 7 2 2 5 2 3 3 2 3 3 2 3 2 1 5 6 3 1 3 3 1 7 5 1 4 3 5 6 4 4 2 1 5 1 1 2 2 4 2 3 2 3 1 1 2 1 1 1 1 2 2 2 2 1 2 6 1 1 3 6 6 3 3 1 3 4 7 10 10 9 7 8 8 8 9 10
17 17 16 10 7 4 4 3 2 2 2 7 7 2 3 2 3 2 2 2 0 4 3 5 2 4 7 2 3 2 3 3 4 6 9 6 8 8 6 6 6 4 3 4 5 4 5 8 3 4 2 7 3 4 3 4 4 5 4 1 4 1 0 2 3 3 5 4 3 2 5 3 10 10 5 4 5 7 8 9 11 10 8 7 7 7 6 4
18 19 20 12 10 8 13 11 3 6 7 6 2 3 3 2 3 2 3 4 1 3 2 0 7 9 7 5 0 2 2 2 3 3 5 2 8 4 4 1 5 3 3 2 2 1 3 0 1 5 1 6 6 8 4 3 7 7 7 6 5 3 1 1 2 1 4 2 2 1 1 5 4 6 2 5 7 9 9 10 10 7 6 3 3 5 7 7
20 20 12 7 7 10 7 4 4 2 2 0 2 4 5 2 2 0 2 2 3 2 3 2 9 6 1 2 4 3 2 3 4 4 6 4 5 6 5 2 4 3 4 2 3 4 2 3 6 7 4 6 11 11 11 3 8 8 4 9 5 6 4 3 4 4 5 1 3 2 4 3 6 3 2 4 7 7 6 7 4 2 1 2 3 4 7 8
21 15 7 5 5 9 12 9 2 0 2 2 5 3 4 4 1 2 0 2 2 3 5 2 3 3 1 2 3 2 1 3 4 6 3 7 6 5 8 8 2 3 3 3 1 1 3 5 3 4 2 4 11 6 5 6 4 2 1 1 1 4 1 4 1 2 2 1 1 3 3 1 4 3 1 2 6 8 7 8 7 9 9 10 10 7 7 8
13 2 1 2 2 2 8 8 6 1 1 4 4 2 2 1 1 2 2 2 1 4 9 6 2 3 2 3 2 3 3 1 2 1 1 1 1 6 1 1 7 10 6 5 3 3 1 3 1 2 3 7 9 6 7 6 5 5 5 7 4 3 4 4 2 4 2 1 2 1 4 3 5 3 6 4 4 9 9 8 10 11 13 12 9 9 10 9
6 6 1 2 2 1 6 8 7 4 2 4 4 2 2 2 3 4 1 2 3 3 2 2 3 3 4 4 3 6 5 2 2 1 3 1 1 4 3 3 2 5 8 7 2 3 2 2 1 2 6 2 3 2 1 2 3 7 5 4 4 1 3 1 2 1 0 4 2 1 1 3 3 2 3 5 6 7 10 10 11 11 11 12 10 10 9 9
6 4 3 2 2 3 7 9 7 2 3 3 2 1 1 2 1 2 1 1 1 1 1 0 2 2 1 2 2 5 8 0 1 1 2 0 1 2 1 3 4 6 7 1 5 2 3 6 4 2 3 1 1 5 4 1 3 3 1 4 5 2 5 2 1 2 2 2 2 2 1 4 4 2 3 4 5 5 7 9 10 12 12 11 9 9 11 11
3 2 2 3 1 5 6 8 1 2 3 3 0 0 2 3 2 3 3 1 2 1 0 2 1 1 1 1 3 2 3 4 1 1 3 2 2 1 3 1 1 1 0 5 6 3 1 3 3 2 3 3 1 0 4 5 2 2 2 4 2 3 1 4 2 1 2 1 0 1 1 3 4 1 2 3 2 3 5 8 8 10 10 10 9 8 7 7
0 1 3 3 4 4 6 2 1 4 3 1 3 1 0 2 2 5 3 3 1 2 1 1 2 3 1 3 0 2 2 1 1 1 1 1 3 1 1 3 2 0 1 8 3 0 2 0 2 1 2 2 4 2 1 1 5 4 4 2 3 2 2 2 2 1 3 1 1 1 2 2 2 1 2 2 3 4 4 8 7 8 8 7 6 6 6 6
2 2 2 2 3 5 3 1 4 3 3 0 1 1 0 1 3 3 2 3 3 2 3 2 2 2 2 3 1 1 2 1 1 0 0 1 1 2 2 2 2 1 2 5 7 2 2 2 4 2 3 1 1 1 1 2 0 2 3 6 6 6 5 5 4 3 1 3 2 3 3 1 0 1 1 1 1 4 6 8 7 9 8 7 6 6 6 7
0 3 1 2 6 4 1 2 2 0 2 1 2 1 1 2 1 3 3 2 3 2 1 2 1 3 1 3 2 2 3 2 1 0 1 0 2 1 0 4 4 4 2 3 3 2 1 2 1 2 2 1 1 5 1 1 2 2 1 1 1 1 1 4 5 2 1 1 2 1 1 0 1 0 1 0 1 4 5 8 8 7 7 6 6 7 7 10
3 3 2 4 5 2 3 3 1 1 1 1 3 2 2 1 2 1 2 2 2 1 1 1 2 2 2 2 1 2 2 2 2 1 1 1 1 3 4 6 2 4 1 2 2 1 1 1 2 2 2 3 4 1 3 1 3 3 4 3 1 2 1 3 3 2 4 4 3 1 2 1 1 3 1 2 5 7 7 8 8 6 6 8 8 9 8 9
2 3 3 1 1 2 1 1 1 1 1 2 1 2 1 2 1 3 1 2 1 2 1 2 1 1 2 0 2 2 2 1 2 2 0 1 2 1 5 8 8 2 2 3 2 2 1 1 0 2 0 1 1 3 1 1 2 3 1 3 2 1 1 1 3 1 1 4 1 3 5 1 1 1 3 4 7 8 8 8 8 7 6 7 7 8 8 8
3 1 2 1 3 1 0 2 2 0 1 2 3 4 5 0 2 2 2 2 1 1 0 1 1 3 2 1 1 1 1 3 2 4 2 2 3 3 7 9 10 9 8 5 2 5 3 1 2 3 4 4 3 3 4 2 1 3 1 4 6 6 5 2 3 3 4 2 3 3 1 1 1 2 5 4 6 8 7 7 7 7 7 7 7 8 8 8
2 3 3 2 4 3 3 1 1 2 2 0 1 2 0 3 0 2 2 2 1 1 1 3 1 1 3 4 3 4 3 1 2 3 4 4 4 3 4 8 8 8 17 9 5 3 3 2 2 3 4 5 1 1 1 1 2 2 4 7 8 6 5 1 1 2 5 4 4 2 1 5 4 5 4 5 5 7 6 7 7 7 8 8 9 9 9 9
1 3 2 1 1 4 1 2 1 1 1 2 1 1 3 3 3 3 1 0 2 2 1 4 3 2 3 3 3 1 2 2 2 1 5 4 3 4 6 6 5 10 22 10 4 3 4 4 1 6 5 1 1 4 2 3 2 2 4 6 7 10 5 1 2 1 3 6 3 3 4 6 6 8 5 6 5 7 7 7 7 7 8 8 9 9 10 10
1 1 2 0 2 1 2 0 1 4 2 1 1 0 2 3 4 2 3 1 2 2 1 1 6 4 1 2 1 1 5 2 4 2 4 2 3 5 1 4 4 7 15 9 5 1 4 2 4 3 3 3 1 1 2 7 6 5 6 8 9 9 10 6 3 3 6 1 1 4 6 3 5 6 7 5 6 8 8 8 8 8 8 8 9 11 11 11
1 2 1 2 2 0 1 2 3 5 5 1 1 2 1 3 3 1 1 3 3 3 4 1 5 5 2 2 1 2 3 1 1 1 3 6 3 4 3 1 4 7 7 6 5 1 3 2 4 4 7 4 4 4 0 8 5 6 10 10 7 8 9 8 7 7 5 3 3 6 8 6 4 6 8 8 8 10 9 8 8 10 10 10 11 12 13 13
3 2 2 4 6 4 2 2 2 2 3 3 1 2 1 0 3 4 1 1 1 2 2 2 4 4 1 2 1 3 2 3 2 1 1 4 4 0 1 2 2 4 6 4 6 3 2 2 4 3 2 3 5 5 5 3 3 8 10 12 10 7 7 9 6 7 5 5 5 6 7 5 5 7 10 8 9 10 11 12 11 10 11 12 13 13 13 13
0 0 2 6 3 3 1 3 2 2 2 2 2 0 1 1 1 1 3 1 1 1 2 2 2 1 1 1 2 3 2 1 3 6 6 3 3 3 2 3 2 4 4 3 4 7 4 2 1 1 3 2 2 5 2 2 3 7 10 13 12 10 6 6 3 5 3 1 4 4 4 2 4 8 10 9 10 12 11 10 10 10 10 11 12 12 12 13
1 1 1 4 3 3 1 1 1 1 1 1 1 1 0 2 2 2 0 0 1 2 1 2 1 1 1 2 1 1 2 4 7 7 5 6 6 4 3 3 4 3 2 2 1 3 4 4 4 3 3 2 2 1 2 3 2 1 6 8 8 4 4 5 2 4 4 5 3 2 2 3 6 5 12 9 12 12 11 9 9 10 10 10 11 12 12 12
Wind_Direction
350 347 347 348 347 345 346 350 349 353 351 352 349 350 348 348 347 346 344 343 342 341 339 341 338 334 330 324 323 319 325 319 313 301 274 245 223 157 179 64 165 197 177 125 126 125 100 114 111 342 112 137 52 167 60 185 64 197 189 190 227 220 185 175 209 192 59 314 346 338 348 343 333 347 354 273 91 75 100 68 0 26 32 68 117 130 142 146
345 347 349 349 349 347 348 348 350 348 351 349 347 346 347 345 344 344 345 342 341 339 339 338 337 336 328 326 324 325 334 317 292 281 240 229 199 184 178 101 154 180 160 134 150 136 126 121 133 148 137 124 310 133 321 151 263 191 118 211 240 136 179 186 107 249 308 340 325 318 316 354 312 322 330 307 295 188 187 107 98 47 75 107 124 139 146 152
346 349 348 350 349 348 349 347 348 347 345 344 346 345 345 343 341 341 341 341 338 339 339 339 335 333 329 326 325 357 344 308 272 263 312 235 233 204 182 164 141 171 191 152 167 147 149 154 152 137 41 116 0 148 240 129 218 175 215 221 211 145 59 224 234 293 240 290 311 327 320 315 302 252 308 283 313 221 217 183 179 184 152 146 145 150 152 158
349 347 348 348 348 349 347 347 345 345 340 343 343 344 343 341 338 339 339 339 341 340 340 336 334 333 327 326 332 344 334 284 58 42 270 278 285 181 175 168 154 172 108 76 123 103 85 111 133 136 111 129 121 218 174 157 206 139 224 241 70 161 245 163 217 257 282 230 297 311 302 301 54 315 269 304 285 235 241 210 197 197 173 156 157 159 159 164
348 347 345 346 347 346 346 344 343 340 338 338 341 340 341 338 338 339 338 339 342 340 339 335 334 332 328 325 333 350 331 252 126 251 296 320 112 151 159 159 162 154 138 129 95 99 131 137 138 49 100 133 132 135 233 175 298 143 231 89 122 155 285 285 281 275 269 133 289 293 307 311 325 237 250 254 280 288 274 198 197 190 176 164 165 167 166 170
347 345 344 344 345 347 343 342 340 337 336 335 336 337 336 337 340 337 336 337 336 337 337 336 333 336 328 331 318 144 284 10 19 326 333 24 130 134 142 155 148 127 134 115 107 128 122 113 148 150 145 149 167 176 156 201 168 237 212 241 207 264 275 285 275 275 58 302 304 300 308 319 309 305 272 236 236 256 119 302 196 179 179 176 170 165 171 175
346 343 343 343 344 344 344 339 338 337 332 334 333 334 332 335 333 334 332 333 332 335 336 334 335 334 335 335 133 319 80 275 336 290 4 117 131 121 125 131 130 130 124 114 128 136 142 132 148 148 142 93 110 177 151 181 216 250 246 40 304 162 241 248 267 282 285 253 269 268 315 289 303 314 61 274 246 278 269 218 185 167 172 172 174 180 180 179
343 342 339 339 342 342 340 340 337 333 333 330 331 330 331 330 330 328 329 328 330 331 335 332 335 337 347 354 285 320 144 254 266 357 25 126 130 117 110 95 119 123 144 143 144 127 144 149 168 133 152 176 162 181 157 175 202 228 246 248 261 250 243 266 264 273 270 260 266 273 276 276 249 270 353 279 278 210 154 151 151 161 169 176 182 183 183 182
339 338 339 340 340 341 341 338 337 334 330 330 328 328 327 329 326 323 321 324 326 326 331 330 332 342 15 336 107 322 278 238 243 324 129 122 126 112 130 119 143 136 112 115 146 150 155 201 143 203 188 182 171 182 149 185 224 218 246 251 272 267 272 270 282 268 268 286 226 261 263 269 268 306 250 267 120 178 147 145 155 161 168 178 188 188 187 187
338 339 340 340 340 340 340 338 335 334 332 327 328 325 322 322 316 316 315 317 319 323 325 328 337 340 357 356 78 345 269 235 40 66 109 118 115 116 63 125 144 129 128 117 128 158 189 180 181 189 135 70 160 171 157 206 200 127 192 230 259 276 310 280 250 287 320 257 182 255 280 304 306 354 284 91 130 143 144 149 158 165 172 180 188 193 195 192
338 337 338 340 339 339 338 337 335 334 331 329 324 322 320 316 315 311 312 310 314 317 320 315 353 342 38 326 138 256 200 115 70 127 125 127 131 138 134 151 158 134 112 126 175 196 121 162 190 122 244 193 165 148 190 189 352 205 259 273 243 282 246 249 280 269 298 286 190 217 269 317 280 334 259 55 155 159 146 151 159 175 178 184 192 195 196 198
335 335 337 339 339 338 337 337 336 334 331 327 324 320 318 316 313 312 307 305 300 310 315 294 32 7 278 112 218 228 131 121 143 131 140 144 147 146 150 168 179 155 151 159 202 194 181 151 155 198 145 142 167 115 227 237 234 295 0 286 326 322 298 155 242 272 110 258 169 177 267 225 160 244 255 344 166 172 156 155 165 179 187 193 197 200 199 199
334 335 337 338 338 338 336 336 334 333 331 327 322 320 319 316 312 308 303 298 293 291 296 290 160 215 306 288 229 223 65 134 118 106 162 57 67 207 160 183 189 171 163 149 187 208 188 160 206 190 118 210 149 205 107 73 262 310 177 279 291 314 292 123 284 271 245 261 113 162 271 215 204 248 318 295 180 175 169 167 173 182 193 198 200 207 207 197
334 335 337 338 338 337 337 337 334 333 330 326 323 323 320 314 310 304 296 285 278 257 231 216 124 173 113 243 271 230 233 254 26 302 231 178 285 288 149 158 141 88 22 102 144 144 166 185 153 200 109 206 152 172 187 39 4 237 51 140 313 302 287 162 331 22 284 70 234 181 253 274 258 275 343 21 199 183 178 183 184 190 197 203 206 208 208 197
334 335 336 337 337 337 336 335 334 331 328 326 326 325 320 316 310 300 290 285 251 206 175 94 114 139 123 267 264 272 183 109 226 232 163 176 194 172 191 129 138 153 187 136 109 142 124 144 153 177 200 81 293 258 51 352 38 356 248 226 122 243 179 322 105 325 10 37 16 198 255 270 299 319 357 176 200 208 201 193 199 200 204 208 211 210 198 106
333 334 334 335 336 335 335 334 333 331 328 329 329 325 324 317 316 319 276 126 130 150 119 129 138 174 329 288 91 92 126 174 228 244 189 192 181 200 126 131 117 117 145 211 49 100 128 149 169 193 218 204 203 117 28 239 132 27 250 256 279 135 345 289 116 23 146 277 49 352 303 328 244 163 325 194 202 215 220 213 211 212 213 214 214 208 136 124
333 332 333 334 334 335 334 333 333 329 330 331 328 326 324 316 13 75 115 127 113 102 165 98 138 184 315 84 264 249 235 229 283 133 117 201 175 141 121 117 136 135 184 88 104 140 105 166 56 119 17 217 79 100 226 253 240 213 35 247 79 276 128 246 320 101 10 13 332 51 331 283 289 282 349 198 208 212 227 224 219 217 218 218 218 202 149 149
332 331 332 332 332 332 332 332 330 330 331 331 328 326 320 313 54 89 98 103 101 121 38 118 178 295 245 39 238 189 25 308 273 105 76 168 159 146 139 134 105 126 135 98 83 170 247 148 299 181 136 132 184 178 202 223 208 212 207 239 232 168 222 310 277 113 331 100 316 291 271 276 281 281 255 253 208 213 230 230 221 218 220 220 218 205 167 158
331 331 331 330 330 331 331 331 329 330 333 329 331 333 333 354 335 164 108 176 175 127 249 172 170 183 261 269 274 298 245 217 241 189 136 131 159 145 81 81 129 132 145 173 122 184 117 126 117 157 202 183 187 198 210 127 158 142 148 276 258 278 216 209 248 297 308 313 310 300 283 291 289 288 238 253 202 212 229 233 233 227 222 221 218 207 180 171
330 330 329 328 329 330 330 330 330 330 333 332 352 4 206 232 237 237 192 288 231 244 354 176 224 332 311 247 271 283 256 39 254 65 107 143 134 160 91 130 91 80 134 198 127 219 194 174 188 200 193 149 166 195 207 187 145 103 142 246 266 272 268 187 240 260 256 270 257 270 269 247 269 270 271 252 213 223 235 233 227 226 220 217 214 201 191 180
330 328 327 327 328 329 329 329 330 331 332 334 351 37 308 123 16 304 294 238 235 256 256 235 198 219 225 59 32 19 24 324 26 180 162 154 132 148 169 152 137 173 131 78 124 112 172 208 220 181 143 175 188 180 112 104 148 213 257 266 279 244 282 123 272 256 32 219 277 198 276 268 260 271 273 212 227 231 226 228 226 223 218 214 206 199 200 186
329 327 326 326 327 328 327 328 330 332 0 115 96 277 325 233 10 335 351 305 281 238 233 247 286 270 345 312 39 305 29 299 262 237 215 188 152 189 140 174 157 196 102 150 117 153 195 215 206 169 180 88 79 134 162 171 161 157 230 264 275 268 330 263 261 276 256 205 266 310 277 270 273 272 276 230 230 236 229 219 219 216 208 205 203 200 190 166
328 326 325 327 327 327 326 325 335 15 21 38 349 285 243 35 326 298 241 271 273 236 227 207 237 252 267 227 229 162 209 212 253 183 191 178 130 217 143 168 185 135 126 171 189 147 209 233 222 194 144 129 73 124 144 113 126 186 189 224 254 46 323 285 212 132 186 225 293 287 288 278 275 274 265 254 230 241 249 259 255 256 217 198 199 194 182 179
326 326 324 327 327 326 323 327 350 174 56 345 274 230 329 313 340 339 167 269 314 303 205 208 208 246 234 203 184 176 177 214 175 239 141 166 163 148 158 183 139 156 194 179 194 202 197 11 100 136 176 168 163 149 153 194 227 190 223 237 258 244 222 237 276 324 283 241 242 266 266 268 243 260 250 144 282 282 282 286 274 259 241 219 203 198 187 184
324 324 325 326 329 326 323 330 64 10 313 295 239 255 277 296 316 301 223 292 203 264 100 118 197 232 227 33 138 183 217 0 223 24 179 166 122 142 188 77 146 204 196 163 125 202 230 189 121 129 151 186 140 164 198 186 244 235 213 224 243 231 235 224 6 309 304 282 115 248 249 253 115 228 257 259 301 286 291 263 247 230 219 210 208 202 193 193
323 323 327 328 330 332 315 261 23 332 319 265 161 90 308 306 317 291 172 63 316 290 258 358 176 124 144 111 148 224 140 224 210 204 175 201 145 138 106 165 194 211 161 155 178 239 236 131 174 163 165 184 200 206 193 188 241 249 261 199 226 233 228 153 174 193 256 235 117 284 322 282 209 282 262 286 299 291 325 261 251 219 211 206 205 201 197 189
324 323 325 330 333 342 353 47 0 308 276 190 100 334 316 304 288 156 269 343 341 260 92 358 189 101 184 166 170 175 194 159 62 140 180 183 178 298 166 159 98 46 117 129 68 225 147 140 167 142 162 167 180 225 195 189 189 233 170 186 203 202 209 204 196 211 246 348 281 169 236 270 287 225 217 286 289 293 332 17 251 226 214 206 205 204 203 197
321 322 323 327 331 339 295 301 319 303 248 82 9 327 312 310 115 51 284 58 259 263 26 202 267 120 325 28 178 224 8 302 251 70 275 207 117 58 237 176 189 166 157 150 215 102 158 165 176 167 178 178 210 221 147 178 187 228 136 162 168 198 205 170 195 205 263 304 279 211 159 242 250 213 193 280 289 289 336 2 340 250 232 223 216 213 209 203
320 319 322 323 325 316 282 252 255 244 236 358 336 335 327 324 205 131 129 114 44 46 156 147 293 242 66 140 214 251 322 326 20 47 273 127 331 155 205 187 167 123 171 186 222 121 274 194 202 175 170 205 213 167 164 178 202 250 122 104 75 95 105 184 186 184 178 215 263 209 177 261 275 278 267 145 245 281 322 326 322 291 243 232 225 219 207 196
317 318 319 324 323 325 17 223 230 232 304 329 326 326 305 147 202 233 33 236 338 85 14 288 167 323 43 241 236 211 235 297 100 53 130 173 170 41 20 115 128 133 179 321 312 199 26 348 148 150 200 215 207 174 165 185 173 90 132 135 98 78 96 88 78 180 152 231 247 147 182 229 286 278 249 264 351 358 314 311 320 305 259 235 235 227 209 201
315 314 317 319 301 314 306 259 254 260 270 307 308 269 149 45 175 82 162 265 354 307 317 33 7 0 1 6 336 17 215 244 69 155 141 185 152 38 136 88 63 97 77 274 251 327 315 75 204 222 176 60 176 138 340 285 73 198 123 184 148 132 148 170 119 213 220 253 29 260 204 183 244 247 244 250 355 339 320 308 313 309 274 243 226 229 223 209
314 312 307 302 268 253 219 253 152 135 353 329 324 66 142 193 15 183 201 322 269 4 17 327 279 350 321 12 230 270 161 157 178 173 157 180 166 171 186 173 158 130 212 192 238 81 235 234 232 284 239 185 157 221 118 166 182 195 190 220 239 164 163 176 184 201 217 252 72 64 155 149 235 256 307 336 356 340 329 313 305 298 289 261 238 230 226 206
313 310 304 285 260 233 236 251 296 312 318 313 38 58 104 102 221 227 289 336 137 14 339 74 299 317 309 311 332 310 272 159 157 187 129 75 176 166 31 115 187 151 211 162 227 255 251 258 312 251 314 203 182 219 164 190 183 177 189 181 182 198 157 221 171 344 309 269 16 193 77 260 321 283 23 335 352 339 341 336 316 287 267 273 262 195 178 185
312 311 301 269 243 228 234 234 249 297 304 60 96 80 54 104 226 95 320 285 320 9 303 341 311 304 172 13 6 322 122 11 190 163 169 119 163 186 194 69 165 153 80 140 193 180 243 223 216 154 213 154 190 212 212 243 159 189 152 178 219 186 182 194 196 220 240 298 60 27 190 225 216 113 33 7 350 0 6 2 21 91 84 45 55 143 145 176
313 301 268 287 251 237 227 223 173 234 9 75 67 95 154 224 265 182 353 308 304 309 301 321 268 327 338 336 312 0 349 76 22 135 164 152 177 186 187 197 224 100 93 183 199 142 240 268 284 212 14 163 193 203 91 105 112 150 158 25 172 230 173 262 68 274 277 160 138 181 254 258 244 49 27 26 20 23 15 40 43 59 52 54 47 48 70 78
319 313 55 254 235 235 197 201 190 25 294 78 103 97 171 214 76 177 72 234 328 337 313 315 73 16 354 314 288 358 344 52 7 55 39 206 99 190 61 152 179 189 156 197 137 185 130 237 357 305 133 210 201 158 198 168 240 151 169 200 206 44 125 91 110 70 119 356 241 63 276 232 270 250 54 55 32 37 28 59 62 76 72 71 71 79 86 102
328 323 109 255 250 129 166 166 169 156 89 95 97 199 208 250 224 172 302 346 321 323 324 353 20 23 1 336 306 340 349 0 64 262 179 327 233 191 178 226 174 176 217 169 220 227 231 259 202 178 248 190 351 264 191 222 117 115 213 207 81 177 14 162 248 49 211 250 265 129 256 302 335 251 29 57 42 36 46 57 72 67 75 73 72 76 87 100
326 326 279 343 356 120 143 155 144 110 77 88 123 0 254 107 172 250 357 315 51 18 20 1 321 356 17 334 311 344 334 170 0 144 139 247 193 74 114 180 185 206 209 272 222 189 173 267 263 224 285 247 334 158 112 102 297 257 343 125 201 184 214 52 154 221 204 220 260 176 281 264 236 273 76 62 38 27 52 66 71 74 74 81 89 85 88 94
285 289 85 15 84 134 145 155 194 89 58 74 223 37 206 263 281 221 211 132 184 95 243 238 283 9 54 304 254 282 322 18 339 260 155 218 192 109 1 329 56 120 327 166 203 114 334 228 269 208 203 6 346 179 232 169 176 118 142 151 12 255 252 175 200 33 282 264 105 200 206 266 182 114 24 52 45 42 72 72 71 78 74 69 72 76 78 84
283 119 53 23 104 119 140 183 25 59 74 165 179 241 176 267 253 252 214 224 256 184 271 280 168 297 261 257 228 321 309 352 305 302 284 142 180 338 39 322 266 307 129 191 161 138 158 326 239 146 255 279 191 0 273 161 189 164 200 199 166 42 322 7 72 240 250 208 211 259 254 224 79 22 302 336 10 70 81 91 79 77 90 95 96 97 84 79
279 103 78 73 127 135 173 12 56 46 98 139 216 6 82 276 324 284 324 200 236 243 242 196 175 251 280 329 350 175 296 300 254 326 242 84 244 173 327 340 294 263 125 141 176 163 125 151 223 348 289 283 317 15 212 214 215 317 222 204 190 148 175 193 210 85 279 219 198 191 254 97 103 232 267 331 349 92 102 106 101 102 108 107 104 115 126 102
103 110 124 99 149 180 265 42 37 1 80 102 80 182 306 331 301 296 311 40 216 273 58 259 239 260 172 235 293 309 327 292 101 208 306 153 32 19 235 12 294 282 237 147 161 186 182 136 116 197 198 18 75 121 74 33 101 50 271 333 21 3 148 213 242 173 152 73 36 19 279 178 349 129 331 83 77 96 113 112 107 106 103 97 95 89 85 100
55 91 6 155 182 279 72 59 313 54 21 332 310 249 260 273 250 300 333 348 331 133 317 222 242 228 212 253 30 296 343 299 318 34 335 203 141 3 333 340 327 294 130 78 20 154 153 66 139 289 330 279 264 233 153 143 193 160 79 69 4 216 331 274 263 166 174 131 192 158 240 97 29 87 168 127 80 63 63 86 93 77 65 67 64 57 60 67
92 106 86 114 233 267 23 90 47 326 313 303 55 289 245 256 284 334 316 324 328 337 0 307 336 144 322 127 213 283 354 299 61 32 188 335 88 35 347 13 21 347 343 198 140 241 174 281 213 52 208 13 176 198 182 143 100 46 19 27 351 283 153 87 94 159 200 195 259 200 242 161 118 164 123 101 84 69 61 61 76 83 77 74 73 71 62 59
111 66 52 10 10 326 320 175 147 171 39 353 336 24 355 146 209 261 277 335 350 237 235 298 302 302 302 342 309 294 9 34 287 59 357 318 331 344 344 25 30 30 350 298 182 152 119 184 173 225 214 212 192 200 219 205 44 328 46 3 34 29 16 218 194 170 237 129 181 208 199 56 170 187 122 120 114 86 70 70 60 51 46 40 45 53 60 50
139 123 310 68 8 43 84 20 59 132 104 153 33 9 105 346 46 336 185 257 291 329 131 279 5 145 29 345 5 24 26 45 16 4 15 347 336 359 352 337 46 20 345 340 14 100 101 88 83 170 242 256 356 8 55 333 292 196 340 23 6 4 358 285 8 171 224 147 200 196 30 148 185 164 136 106 107 111 85 63 58 59 58 62 63 58 54 51
122 107 150 175 342 26 45 358 147 102 104 184 101 307 9 343 286 314 139 12 35 18 64 33 351 29 351 20 11 15 27 303 24 106 21 351 313 297 321 317 34 17 351 318 318 84 92 95 94 95 73 73 322 257 303 315 109 43 18 0 10 15 354 290 257 308 21 133 228 110 169 155 185 168 137 122 110 84 73 72 70 68 67 70 73 64 54 47
130 224 105 296 134 176 120 24 70 95 65 317 48 260 17 358 18 24 326 94 297 7 221 197 49 60 66 48 273 21 347 19 21 14 323 32 301 328 324 12 34 24 356 313 313 199 130 126 187 107 110 118 185 296 100 92 70 82 61 36 28 16 31 52 20 340 337 289 332 129 160 148 154 165 144 131 105 86 82 75 75 79 74 65 61 60 57 50
40 124 131 304 156 315 100 111 112 112 93 35 114 19 65 42 29 310 247 322 19 18 7 54 3 16 17 288 124 55 358 47 20 10 26 335 20 319 3 42 116 50 6 307 329 0 116 79 156 153 124 96 54 49 294 122 119 60 47 46 38 44 53 57 52 23 17 14 45 128 132 93 45 103 84 78 90 92 86 81 72 65 66 70 75 65 62 58
183 136 153 9 71 100 58 77 112 88 64 347 71 344 140 155 356 340 141 198 19 11 329 54 344 357 20 336 71 76 36 54 49 322 13 345 325 164 325 222 279 335 15 335 311 310 286 155 164 165 118 89 36 44 33 47 110 83 48 40 31 39 68 40 40 9 3 86 96 130 131 91 55 74 89 79 79 82 75 65 65 73 77 76 73 71 69 67
117 87 157 128 89 3 51 17 77 88 117 350 73 153 234 205 337 307 284 307 62 71 353 22 327 72 120 43 71 123 169 235 238 247 274 270 284 48 345 337 117 296 345 1 2 322 342 123 135 170 149 132 66 38 34 90 106 92 46 27 21 16 34 358 13 12 329 21 138 136 157 118 104 90 75 66 71 69 72 74 76 74 73 75 76 74 73 71
124 88 94 104 99 340 38 102 49 107 93 218 194 272 268 7 307 301 1 1 262 252 210 281 230 185 335 354 51 272 228 250 265 266 254 258 272 285 260 260 233 277 318 310 246 36 353 137 161 171 174 163 90 180 141 194 184 224 28 353 341 345 336 313 273 8 15 310 211 177 25 61 132 125 100 70 80 76 73 72 78 74 69 72 75 77 73 68